Taylorville, IL

6:27 PM CDT on September 29, 2016 (GMT -0500)
Taylorville Municipal

Weather History for KTAZ - February, 2012

Change the Weather History Date:

Monday, February 27, 2012

  Actual Average (KSPI) Record (KSPI)
Temperature  
Mean Temperature 40 °F 36 °F  
Max Temperature 48 °F 45 °F 72 °F (1976)
Min Temperature 32 °F 26 °F -14 °F (2015)
Degree Days  
Heating Degree Days 25 30  
Month to date heating degree days 917  
Since 1 July heating degree days 4243  
Cooling Degree Days 0 0  
Month to date cooling degree days 0  
Year to date cooling degree days 0  
Moisture  
Dew Point 23 °F    
Average Humidity 50    
Maximum Humidity 75    
Minimum Humidity 32    
Precipitation  
Precipitation 0.00 in 0.07 in 1.52 in (1997)
Month to date precipitation 1.73  
Year to date precipitation 3.55  
Snow  
Snow 0.00 in 0.10 in 6.60 in (1984)
Month to date snowfall 5.3  
Since 1 July snowfall 17.9  
Snow Depth -    
Sea Level Pressure  
Sea Level Pressure 30.34 in    
Wind  
Wind Speed 11 mph (NW)    
Max Wind Speed 17 mph    
Max Gust Speed 25 mph    
Visibility 10 miles    
Events      
T = Trace of Precipitation, MM = Missing Value Source: NWS Daily Summary

Daily Weather History Graph

Daily Weather History Graph

Search for Another Location

Airport or City:

Trip Planner

Search our weather history database for the weather conditions in past years. The results will help you decide how hot, cold, wet, or windy it might be!

Date:

Astronomy

Feb. 27, 2012 Rise Set
Actual Time 6:33 AM CST 5:46 PM CST
Civil Twilight 6:06 AM CST 6:13 PM CST
Nautical Twilight 5:35 AM CST 6:45 PM CST
Astronomical Twilight 5:04 AM CST 7:16 PM CST
Moon 9:04 AM CST (2/27) 11:38 PM CST (2/27)
Length of Visible Light 12h 07m
Length of Day
11h 12m
Waxing Crescent, 29% of the Moon is Illuminated
Feb 27
Waxing Crescent
Feb 29
First Quarter
Mar 8
Full
Mar 14
Last Quarter
Mar 22
New

Hourly Weather History & Observations

Time (CST) Temp. Windchill Dew Point Humidity Pressure Visibility Wind Dir Wind Speed Gust Speed Precip Events Conditions
12:15 AM 46.4 °F 40.1 °F 33.8 °F 62% 30.10 in 10.0 mi SSW 15.0 mph 21.9 mph N/A   Overcast
12:35 AM 46.4 °F 40.4 °F 33.8 °F 62% 30.11 in 10.0 mi SSW 13.8 mph - N/A   Overcast
12:55 AM 46.4 °F 40.4 °F 33.8 °F 62% 30.12 in 10.0 mi SSW 13.8 mph - N/A   Overcast
1:15 AM 46.4 °F 41.9 °F 33.8 °F 62% 30.14 in 10.0 mi SSW 9.2 mph - N/A   Overcast
1:35 AM 46.4 °F 41.1 °F 33.8 °F 62% 30.16 in 10.0 mi WNW 11.5 mph - N/A   Overcast
1:55 AM 46.4 °F 42.9 °F 33.8 °F 62% 30.17 in 10.0 mi West 6.9 mph - N/A   Overcast
2:15 AM 46.4 °F 42.9 °F 33.8 °F 62% 30.17 in 10.0 mi NW 6.9 mph - N/A   Overcast
2:35 AM 44.6 °F 39.2 °F 30.2 °F 57% 30.18 in 10.0 mi North 10.4 mph - N/A   Overcast
2:55 AM 42.8 °F 37.5 °F 30.2 °F 61% 30.18 in 10.0 mi North 9.2 mph - N/A   Overcast
3:15 AM 42.8 °F 37.5 °F 30.2 °F 61% 30.20 in 10.0 mi North 9.2 mph - N/A   Overcast
3:35 AM 39.2 °F 33.6 °F 30.2 °F 70% 30.21 in 10.0 mi North 8.1 mph - N/A   Scattered Clouds
3:55 AM 37.4 °F 31.4 °F 28.4 °F 70% 30.22 in 10.0 mi NNW 8.1 mph - N/A   Clear
4:15 AM 37.4 °F 31.4 °F 28.4 °F 70% 30.24 in 10.0 mi NNW 8.1 mph - N/A   Clear
4:35 AM 37.4 °F 28.5 °F 28.4 °F 70% 30.25 in 10.0 mi NNW 15.0 mph - N/A   Clear
4:55 AM 37.4 °F 30.3 °F 28.4 °F 70% 30.27 in 10.0 mi NNW 10.4 mph - N/A   Clear
5:15 AM 35.6 °F 28.6 °F 26.6 °F 70% 30.28 in 10.0 mi NNW 9.2 mph - N/A   Clear
5:35 AM 33.8 °F 25.8 °F 26.6 °F 75% 30.29 in 10.0 mi NNW 10.4 mph - N/A   Clear
5:55 AM 33.8 °F 26.4 °F 24.8 °F 70% 30.30 in 10.0 mi NNW 9.2 mph - N/A   Clear
6:15 AM 33.8 °F 25.8 °F 24.8 °F 70% 30.31 in 10.0 mi NNW 10.4 mph - N/A   Clear
6:35 AM 32.0 °F 26.4 °F 24.8 °F 75% 30.32 in 10.0 mi NW 5.8 mph - N/A   Clear
6:55 AM 33.8 °F 28.6 °F 24.8 °F 70% 30.33 in 10.0 mi WNW 5.8 mph - N/A   Clear
7:15 AM 35.6 °F 28.6 °F 24.8 °F 65% 30.34 in 10.0 mi NW 9.2 mph - N/A   Clear
7:35 AM 35.6 °F 28.0 °F 24.8 °F 65% 30.35 in 10.0 mi WNW 10.4 mph - N/A   Clear
7:55 AM 37.4 °F 28.9 °F 24.8 °F 60% 30.37 in 10.0 mi WNW 13.8 mph - N/A   Clear
8:15 AM 37.4 °F 28.2 °F 23.0 °F 56% 30.37 in 10.0 mi West 16.1 mph - N/A   Clear
8:35 AM 37.4 °F 28.2 °F 19.4 °F 48% 30.38 in 10.0 mi WNW 16.1 mph 25.3 mph N/A   Clear
8:55 AM 37.4 °F 27.8 °F 19.4 °F 48% 30.39 in 10.0 mi WNW 17.3 mph - N/A   Clear
9:15 AM 37.4 °F 27.8 °F 17.6 °F 45% 30.40 in 10.0 mi NW 17.3 mph 25.3 mph N/A   Clear
9:35 AM 37.4 °F 28.2 °F 17.6 °F 45% 30.41 in 10.0 mi WNW 16.1 mph - N/A   Clear
9:55 AM 39.2 °F 31.2 °F 19.4 °F 45% 30.41 in 10.0 mi NW 13.8 mph 18.4 mph N/A   Clear
10:15 AM 41.0 °F 33.5 °F 19.4 °F 42% 30.42 in 10.0 mi WNW 13.8 mph 19.6 mph N/A   Clear
10:35 AM 41.0 °F 33.5 °F 17.6 °F 39% 30.42 in 10.0 mi WNW 13.8 mph 18.4 mph N/A   Clear
10:55 AM 41.0 °F 32.8 °F 19.4 °F 42% 30.43 in 10.0 mi WNW 16.1 mph - N/A   Clear
11:15 AM 42.8 °F 35.8 °F 19.4 °F 39% 30.43 in 10.0 mi WNW 13.8 mph 18.4 mph N/A   Clear
11:35 AM 41.0 °F 33.9 °F 17.6 °F 39% 30.44 in 10.0 mi West 12.7 mph 19.6 mph N/A   Clear
11:55 AM 42.8 °F 38.0 °F 17.6 °F 36% 30.44 in 10.0 mi WNW 8.1 mph - N/A   Clear
12:15 PM 44.6 °F 41.4 °F 17.6 °F 34% 30.43 in 10.0 mi West 5.8 mph - N/A   Clear
12:35 PM 44.6 °F 40.7 °F 17.6 °F 34% 30.42 in 10.0 mi NW 6.9 mph 16.1 mph N/A   Clear
12:55 PM 46.4 °F 41.1 °F 19.4 °F 34% 30.42 in 10.0 mi West 11.5 mph 19.6 mph N/A   Clear
1:15 PM 46.4 °F 42.9 °F 19.4 °F 34% 30.41 in 10.0 mi West 6.9 mph - N/A   Clear
1:35 PM 48.2 °F - 19.4 °F 32% 30.41 in 10.0 mi NNW 11.5 mph - N/A   Clear
1:55 PM 48.2 °F - 19.4 °F 32% 30.41 in 10.0 mi WNW 10.4 mph - N/A   Clear
2:15 PM 48.2 °F - 19.4 °F 32% 30.41 in 10.0 mi NW 9.2 mph 18.4 mph N/A   Clear
2:35 PM 48.2 °F - 19.4 °F 32% 30.42 in 10.0 mi WNW 10.4 mph - N/A   Clear
2:55 PM 48.2 °F - 19.4 °F 32% 30.42 in 10.0 mi WNW 10.4 mph 16.1 mph N/A   Clear
3:15 PM 48.2 °F - 19.4 °F 32% 30.42 in 10.0 mi WNW 9.2 mph - N/A   Clear
3:35 PM 48.2 °F - 19.4 °F 32% 30.42 in 10.0 mi NNW 11.5 mph - N/A   Clear
3:55 PM 48.2 °F - 19.4 °F 32% 30.42 in 10.0 mi NNW 8.1 mph - N/A   Clear
4:15 PM 48.2 °F - 19.4 °F 32% 30.42 in 10.0 mi NNW 8.1 mph - N/A   Clear
4:35 PM 46.4 °F 42.4 °F 19.4 °F 34% 30.42 in 10.0 mi North 8.1 mph - N/A   Clear
4:55 PM 46.4 °F 41.9 °F 19.4 °F 34% 30.42 in 10.0 mi North 9.2 mph - N/A   Clear
5:15 PM 44.6 °F 40.2 °F 19.4 °F 37% 30.43 in 10.0 mi North 8.1 mph - N/A   Clear
5:35 PM 42.8 °F 37.5 °F 19.4 °F 39% 30.44 in 10.0 mi North 9.2 mph - N/A   Clear
5:55 PM 39.2 °F 35.0 °F 19.4 °F 45% 30.44 in 10.0 mi North 5.8 mph - N/A   Clear
6:15 PM 37.4 °F 32.1 °F 19.4 °F 48% 30.45 in 10.0 mi North 6.9 mph - N/A   Clear
6:35 PM 37.4 °F 32.8 °F 19.4 °F 48% 30.46 in 10.0 mi North 5.8 mph - N/A   Clear
6:55 PM 35.6 °F 29.9 °F 19.4 °F 52% 30.46 in 10.0 mi North 6.9 mph - N/A   Clear
7:15 PM 35.6 °F 29.9 °F 19.4 °F 52% 30.45 in 10.0 mi North 6.9 mph - N/A   Clear
7:35 PM 35.6 °F 31.7 °F 19.4 °F 52% 30.45 in 10.0 mi NNE 4.6 mph - N/A   Clear
7:55 PM 33.8 °F 27.7 °F 19.4 °F 56% 30.45 in 10.0 mi NNE 6.9 mph - N/A   Clear
8:15 PM 33.8 °F 27.7 °F 19.4 °F 56% 30.45 in 10.0 mi NNE 6.9 mph - N/A   Clear
8:35 PM 33.8 °F 27.7 °F 19.4 °F 56% 30.45 in 10.0 mi NE 6.9 mph - N/A   Clear
8:55 PM 32.0 °F 25.6 °F 19.4 °F 60% 30.45 in 10.0 mi NNE 6.9 mph - N/A   Clear
9:15 PM 32.0 °F 26.4 °F 19.4 °F 60% 30.45 in 10.0 mi NE 5.8 mph - N/A   Clear
9:35 PM 32.0 °F 26.4 °F 19.4 °F 60% 30.45 in 10.0 mi NNE 5.8 mph - N/A   Clear
9:55 PM 32.0 °F 26.4 °F 19.4 °F 60% 30.45 in 10.0 mi NE 5.8 mph - N/A   Clear
10:15 PM 32.0 °F 26.4 °F 19.4 °F 60% 30.45 in 10.0 mi NE 5.8 mph - N/A   Clear
10:35 PM 30.2 °F 25.4 °F 19.4 °F 64% 30.44 in 10.0 mi ENE 4.6 mph - N/A   Clear
10:55 PM 30.2 °F 25.4 °F 19.4 °F 64% 30.44 in 10.0 mi NE 4.6 mph - N/A   Clear
11:15 PM 32.0 °F 27.5 °F 21.2 °F 64% 30.44 in 10.0 mi ENE 4.6 mph - N/A   Clear
11:35 PM 32.0 °F 25.6 °F 21.2 °F 64% 30.44 in 10.0 mi ENE 6.9 mph - N/A   Clear
11:55 PM 33.8 °F 27.0 °F 21.2 °F 60% 30.43 in 10.0 mi East 8.1 mph - N/A   Clear